EW2910 Weather Reports


Display with metric or nautical units.
time (UTC)temp
F
wind
direction
speed
MPH
gust
MPH
rain 1hr
in
rain 24hr
in
rain mn
in
humidity
%
barometer
mb
20260504034625 68 51 1.0 4.0 0.00 0.07 0.07 80 1017.5
20260504033058 68 51 2.0 7.0 0.00 0.07 0.07 79 1017.5
20260504031600 68 55 5.0 7.0 0.00 0.07 0.07 79 1017.4
20260504030124 68 0 0.0 5.0 0.00 0.07 0.07 79 1017.6
20260504024602 68 50 1.0 3.0 0.00 0.07 0.07 79 1017.4
20260504023102 68 51 0.0 4.0 0.00 0.07 0.07 79 1017.3
20260504021601 68 0 0.0 0.0 0.00 0.07 0.07 80 1017.1
20260504020108 68 0 0.0 0.0 0.00 0.07 0.07 79 1017.1
20260504014607 68 0 0.0 2.0 0.00 0.07 0.07 78 1016.8
20260504013101 69 99 0.0 5.0 0.00 0.07 0.07 77 1016.7
20260504011559 69 91 1.0 7.0 0.00 0.07 0.07 77 1016.7
20260504010058 69 58 3.0 7.0 0.00 0.07 0.07 76 1016.6
20260504004558 70 86 3.0 6.0 0.00 0.07 0.07 75 1016.5
20260504003056 70 51 3.0 7.0 0.00 0.07 0.07 74 1016.3
20260504001606 71 73 3.0 8.0 0.00 0.07 0.07 73 1016.2
20260504000059 71 84 2.0 8.0 0.00 0.07 0.07 72 1016.2
20260503234558 72 34 5.0 10.0 0.00 0.07 0.07 71 1015.9
20260503233102 73 75 5.0 11.0 0.00 0.07 0.07 70 1015.9
20260503231558 73 42 6.0 11.0 0.00 0.07 0.07 69 1015.6
20260503224558 75 65 4.0 13.0 0.00 0.09 0.07 68 1015.7
20260503223057 75 108 5.0 10.0 0.00 0.09 0.07 67 1015.6
20260503221602 76 109 4.0 10.0 0.00 0.09 0.07 65 1015.5
20260503220059 76 67 5.0 13.0 0.00 0.09 0.07 66 1015.5
20260503214602 76 82 6.0 11.0 0.00 0.10 0.07 65 1015.6
20260503213058 77 72 5.0 10.0 0.00 0.10 0.07 62 1015.5
20260503211602 77 91 5.0 11.0 0.00 0.10 0.07 63 1015.3
20260503210101 77 45 4.0 10.0 0.00 0.10 0.07 61 1015.4
20260503204605 77 54 9.0 13.0 0.00 0.23 0.07 61 1015.4
20260503203100 78 35 6.0 12.0 0.00 0.23 0.07 59 1015.6
20260503201601 78 77 6.0 11.0 0.00 0.23 0.07 62 1015.6
20260503200100 77 92 9.0 13.0 0.00 0.23 0.07 61 1015.8
20260503194601 78 84 5.0 12.0 0.00 0.30 0.07 62 1016.0
20260503193111 78 63 8.0 14.0 0.00 0.30 0.07 62 1016.3
20260503191600 76 46 7.0 15.0 0.00 0.30 0.07 63 1016.6
20260503190109 76 359 5.0 13.0 0.00 0.30 0.07 64 1017.0
20260503184602 77 95 6.0 13.0 0.00 0.46 0.07 63 1017.0
20260503183110 76 58 3.0 14.0 0.00 0.46 0.07 66 1017.3
20260503181559 75 41 6.0 15.0 0.00 0.46 0.07 66 1017.6
20260503180103 75 37 7.0 15.0 0.00 0.46 0.07 71 1017.7
20260503174609 74 60 6.0 14.0 0.00 0.46 0.07 70 1017.8
20260503173115 74 48 6.0 14.0 0.00 0.46 0.07 72 1017.7
20260503171608 73 48 7.0 14.0 0.00 0.46 0.07 71 1018.0
20260503170108 73 41 6.0 13.0 0.00 0.46 0.07 72 1018.1
20260503160104 70 41 10.0 15.0 0.00 0.46 0.07 78 1018.3
20260503150117 67 349 8.0 12.0 0.00 0.46 0.07 84 1018.6
20260503140119 66 15 8.0 15.0 0.00 0.46 0.07 86 1017.8
20260503110117 63 19 6.0 12.0 0.00 0.46 0.07 94 1016.1
20260503100109 63 13 1.0 6.0 0.00 0.46 0.07 95 1015.7
20260503090108 63 52 4.0 8.0 0.01 0.46 0.07 96 1015.3
20260503081606 63 42 4.0 9.0 0.02 0.46 0.07 96 1014.9
20260503080104 63 49 3.0 7.0 0.01 0.45 0.06 96 1015.0
20260503071610 64 53 4.0 10.0 0.00 0.44 0.05 96 1014.6
20260503060111 64 49 5.0 9.0 0.01 0.44 0.05 96 1014.7
20260503054557 64 14 6.0 9.0 0.02 0.44 0.05 96 1015.0
20260503053058 65 20 5.0 12.0 0.05 0.44 0.05 96 1015.1
20260503051603 65 359 5.0 13.0 0.05 0.44 0.05 96 1015.0
20260503050105 67 339 7.0 13.0 0.04 0.43 0.04 96 1015.3
20260503044610 68 359 8.0 12.0 0.03 0.42 0.03 96 1015.0
20260503043101 70 56 0.0 0.0 0.00 0.39 0.00 96 1014.5
20260503041600 70 0 0.0 2.0 0.00 0.39 0.00 96 1014.0
20260503040059 70 269 0.0 2.0 0.00 0.39 0.00 96 1013.7